JBU1817 TTPP-TTCP

Flight info

Callsign JBU1817
Flight time 0h 25m
Altitude 11000
Route SASIM DCT NOTEL
Aircraft A320/M-SDE3FGHIRWY/LB1

Departure

Time 2026-04-21 00:21
Airport Piarco International Airport (TTPP)

Arrival

Time 2026-04-21 00:46
Airport A.N.R. Robinson International Airport (TTCP)
Time Latitude Longitude Altitude Speed Heading
2026-04-21 00:06 10.59982 -61.33993 51 ft 0 kts 20°
2026-04-21 00:11 10.59975 -61.33996 22 ft 3 kts 20°
2026-04-21 00:11 10.59958 -61.34002 48 ft 3 kts 25°
2026-04-21 00:12 10.59942 -61.34007 45 ft 2 kts 12°
2026-04-21 00:12 10.59925 -61.34011 49 ft 3 kts 351°
2026-04-21 00:12 10.59907 -61.34009 50 ft 2 kts 359°
2026-04-21 00:12 10.59890 -61.34008 51 ft 2 kts 359°
2026-04-21 00:13 10.59879 -61.34008 51 ft 2 kts 359°
2026-04-21 00:13 10.59862 -61.34008 46 ft 2 kts 359°
2026-04-21 00:13 10.59839 -61.34004 49 ft 3 kts 321°
2026-04-21 00:13 10.59828 -61.33992 49 ft 0 kts 287°
2026-04-21 00:17 10.59830 -61.33998 48 ft 3 kts 287°
2026-04-21 00:17 10.59838 -61.34030 49 ft 6 kts 282°
2026-04-21 00:18 10.59842 -61.34074 50 ft 7 kts 268°
2026-04-21 00:18 10.59838 -61.34130 49 ft 9 kts 264°
2026-04-21 00:18 10.59796 -61.34174 49 ft 10 kts 186°
2026-04-21 00:18 10.59721 -61.34183 49 ft 10 kts 220°
2026-04-21 00:19 10.59706 -61.34265 48 ft 14 kts 267°
2026-04-21 00:19 10.59707 -61.34375 47 ft 18 kts 270°
2026-04-21 00:19 10.59698 -61.34501 44 ft 13 kts 233°
2026-04-21 00:19 10.59606 -61.34533 45 ft 16 kts 179°
2026-04-21 00:20 10.59541 -61.34529 45 ft 1 kts 144°
2026-04-21 00:20 10.59537 -61.34516 45 ft 2 kts 99°
2026-04-21 00:20 10.59535 -61.34486 46 ft 8 kts 93°
2026-04-21 00:20 10.59533 -61.34229 49 ft 75 kts 88°
2026-04-21 00:21 10.59540 -61.33468 55 ft 135 kts 90°
2026-04-21 00:21 10.59557 -61.32393 396 ft 155 kts 86°
2026-04-21 00:21 10.59628 -61.31314 1165 ft 153 kts 87°
2026-04-21 00:21 10.59666 -61.30200 1662 ft 166 kts 88°
2026-04-21 00:22 10.59676 -61.28965 2094 ft 182 kts 89°
2026-04-21 00:22 10.59784 -61.27646 2514 ft 199 kts 74°
2026-04-21 00:22 10.60465 -61.26324 2865 ft 226 kts 51°
2026-04-21 00:22 10.61722 -61.25262 3533 ft 246 kts 31°
2026-04-21 00:23 10.63378 -61.24606 4226 ft 265 kts 18°
2026-04-21 00:23 10.65190 -61.24064 5002 ft 272 kts 19°
2026-04-21 00:23 10.66956 -61.23483 5751 ft 261 kts 20°
2026-04-21 00:23 10.68639 -61.22877 6417 ft 250 kts 21°
2026-04-21 00:24 10.70208 -61.22235 6667 ft 238 kts 26°
2026-04-21 00:24 10.71667 -61.21475 7045 ft 236 kts 28°
2026-04-21 00:24 10.73184 -61.20655 7306 ft 257 kts 28°
2026-04-21 00:24 10.74791 -61.19821 7300 ft 260 kts 27°
2026-04-21 00:25 10.76432 -61.19013 7075 ft 265 kts 26°
2026-04-21 00:25 10.78123 -61.18217 6678 ft 270 kts 25°
2026-04-21 00:25 10.79847 -61.17429 6270 ft 273 kts 25°
2026-04-21 00:25 10.81573 -61.16653 5863 ft 276 kts 25°
2026-04-21 00:26 10.83332 -61.15870 5449 ft 274 kts 25°
2026-04-21 00:26 10.85052 -61.15109 5036 ft 265 kts 25°
2026-04-21 00:26 10.86721 -61.14374 4626 ft 257 kts 26°
2026-04-21 00:26 10.88339 -61.13660 4201 ft 250 kts 25°
2026-04-21 00:27 10.89920 -61.12965 3790 ft 244 kts 26°
2026-04-21 00:27 10.91457 -61.12288 3382 ft 238 kts 26°
2026-04-21 00:27 10.92957 -61.11625 2969 ft 232 kts 26°
2026-04-21 00:27 10.94325 -61.11017 2590 ft 228 kts 26°
2026-04-21 00:28 10.95759 -61.10379 2284 ft 218 kts 26°
2026-04-21 00:28 10.97089 -61.09791 2288 ft 202 kts 27°
2026-04-21 00:28 10.98358 -61.09228 2280 ft 196 kts 27°
2026-04-21 00:28 10.99608 -61.08671 2281 ft 195 kts 27°
2026-04-21 00:29 11.00828 -61.08128 2279 ft 193 kts 26°
2026-04-21 00:29 11.02014 -61.07493 2272 ft 193 kts 43°
2026-04-21 00:29 11.02942 -61.06532 2392 ft 186 kts 48°
2026-04-21 00:29 11.03860 -61.05541 2490 ft 198 kts 49°
2026-04-21 00:30 11.04792 -61.04537 2325 ft 193 kts 49°
2026-04-21 00:30 11.05707 -61.03550 2170 ft 192 kts 49°
2026-04-21 00:30 11.06623 -61.02563 2025 ft 191 kts 48°
2026-04-21 00:30 11.07538 -61.01578 1898 ft 192 kts 49°
2026-04-21 00:31 11.08449 -61.00595 1797 ft 190 kts 48°
2026-04-21 00:31 11.09363 -60.99609 1717 ft 191 kts 48°
2026-04-21 00:31 11.10230 -60.98677 1715 ft 178 kts 49°
2026-04-21 00:31 11.11071 -60.97772 1711 ft 173 kts 48°
2026-04-21 00:32 11.11892 -60.96887 1714 ft 172 kts 49°
2026-04-21 00:32 11.12712 -60.96003 1708 ft 170 kts 49°
2026-04-21 00:32 11.13526 -60.95125 1706 ft 171 kts 48°
2026-04-21 00:32 11.14341 -60.94247 1711 ft 169 kts 49°
2026-04-21 00:33 11.15034 -60.93296 1697 ft 162 kts 63°
2026-04-21 00:33 11.15411 -60.92309 1689 ft 141 kts 76°
2026-04-21 00:33 11.15501 -60.91352 1672 ft 135 kts 90°
2026-04-21 00:33 11.15460 -60.90405 1357 ft 133 kts 90°
2026-04-21 00:34 11.15405 -60.89478 1093 ft 129 kts 90°
2026-04-21 00:34 11.15347 -60.88578 905 ft 129 kts 92°
2026-04-21 00:34 11.15293 -60.87663 730 ft 133 kts 90°
2026-04-21 00:34 11.15238 -60.86736 622 ft 131 kts 92°
2026-04-21 00:35 11.15153 -60.85807 408 ft 133 kts 93°
2026-04-21 00:35 11.15089 -60.84866 219 ft 132 kts 93°
2026-04-21 00:35 11.15026 -60.83953 42 ft 120 kts 91°
2026-04-21 00:35 11.14945 -60.83121 253 ft 129 kts 95°
2026-04-21 00:36 11.14764 -60.82154 708 ft 144 kts 92°
2026-04-21 00:36 11.14630 -60.81141 1247 ft 146 kts 99°
2026-04-21 00:36 11.14338 -60.80030 1396 ft 181 kts 106°
2026-04-21 00:36 11.13721 -60.78832 1857 ft 203 kts 132°
2026-04-21 00:37 11.12452 -60.78045 2081 ft 220 kts 156°
2026-04-21 00:37 11.10900 -60.77548 2110 ft 251 kts 160°
2026-04-21 00:37 11.09192 -60.77062 2108 ft 257 kts 161°
2026-04-21 00:37 11.07476 -60.76574 2107 ft 261 kts 161°
2026-04-21 00:38 11.05706 -60.76148 2106 ft 265 kts 173°
2026-04-21 00:38 11.03886 -60.76460 2110 ft 270 kts 202°
2026-04-21 00:38 11.02395 -60.77632 2097 ft 275 kts 231°
2026-04-21 00:38 11.01602 -60.79392 2113 ft 277 kts 261°
2026-04-21 00:39 11.01511 -60.81351 2113 ft 276 kts 272°
2026-04-21 00:39 11.01571 -60.83312 2115 ft 277 kts 273°
2026-04-21 00:39 11.01650 -60.85271 2105 ft 276 kts 274°
2026-04-21 00:39 11.01727 -60.87222 2113 ft 276 kts 273°
2026-04-21 00:40 11.01835 -60.89170 2108 ft 275 kts 277°
2026-04-21 00:40 11.01867 -60.91121 2113 ft 275 kts 261°
2026-04-21 00:40 11.01495 -60.92943 2104 ft 256 kts 256°
2026-04-21 00:40 11.01105 -60.94643 2109 ft 238 kts 256°
2026-04-21 00:41 11.00920 -60.96248 2106 ft 222 kts 280°
2026-04-21 00:41 11.01540 -60.97615 2134 ft 212 kts 316°
2026-04-21 00:41 11.02769 -60.98326 2122 ft 201 kts 353°
2026-04-21 00:41 11.04152 -60.98363 2095 ft 199 kts
2026-04-21 00:42 11.05532 -60.98263 2010 ft 198 kts
2026-04-21 00:42 11.06901 -60.98152 2013 ft 197 kts
2026-04-21 00:42 11.08261 -60.98027 2013 ft 196 kts
2026-04-21 00:42 11.09625 -60.97917 2013 ft 197 kts
2026-04-21 00:43 11.10879 -60.97457 2006 ft 190 kts 38°
2026-04-21 00:43 11.11850 -60.96556 2012 ft 189 kts 46°
2026-04-21 00:43 11.12796 -60.95628 2009 ft 188 kts 46°
2026-04-21 00:43 11.13743 -60.94700 2005 ft 189 kts 46°
2026-04-21 00:44 11.14686 -60.93777 2010 ft 188 kts 46°
2026-04-21 00:44 11.15598 -60.92882 1941 ft 178 kts 46°
2026-04-21 00:44 11.16045 -60.91843 2191 ft 172 kts 97°
2026-04-21 00:45 11.15329 -60.89395 1460 ft 172 kts 94°
2026-04-21 00:45 11.15348 -60.88204 1025 ft 164 kts 82°
2026-04-21 00:45 11.15323 -60.87109 821 ft 143 kts 96°
2026-04-21 00:45 11.15161 -60.86163 549 ft 133 kts 89°
2026-04-21 00:46 11.15112 -60.85232 343 ft 132 kts 94°
2026-04-21 00:46 11.15040 -60.84266 120 ft 135 kts 93°
2026-04-21 00:46 11.14982 -60.83395 35 ft 100 kts 95°
2026-04-21 00:46 11.14957 -60.82972 34 ft 22 kts 96°
2026-04-21 00:47 11.14931 -60.82814 33 ft 24 kts 96°
2026-04-21 00:47 11.14917 -60.82638 31 ft 26 kts 92°
2026-04-21 00:47 11.14906 -60.82453 30 ft 26 kts 95°
2026-04-21 00:47 11.14892 -60.82257 28 ft 29 kts 93°
2026-04-21 00:48 11.14880 -60.82081 28 ft 11 kts 93°
2026-04-21 00:48 11.14859 -60.82055 28 ft 1 kts 242°
2026-04-21 00:48 11.14865 -60.82074 28 ft 5 kts 285°
2026-04-21 00:48 11.14882 -60.82118 28 ft 10 kts 293°
2026-04-21 00:49 11.14898 -60.82240 28 ft 26 kts 276°
2026-04-21 00:49 11.14914 -60.82469 30 ft 40 kts 274°
2026-04-21 00:49 11.14948 -60.82852 33 ft 69 kts 275°
2026-04-21 00:49 11.14980 -60.83316 35 ft 60 kts 275°
2026-04-21 00:50 11.14997 -60.83675 35 ft 35 kts 275°
2026-04-21 00:50 11.15042 -60.83805 34 ft 20 kts 315°
2026-04-21 00:50 11.15103 -60.83878 34 ft 9 kts 304°
2026-04-21 00:50 11.15116 -60.83945 35 ft 11 kts 270°
2026-04-21 00:51 11.15119 -60.84029 35 ft 12 kts 272°
2026-04-21 00:51 11.15139 -60.84076 36 ft 1 kts 360°
2026-04-21 00:51 11.15140 -60.84072 36 ft 0 kts 44°
2026-04-21 00:51 11.15149 -60.84066 36 ft 4 kts 32°
2026-04-21 00:52 11.15170 -60.84064 36 ft 0 kts 341°